| time (UTC) | temp F | wind direction | speed MPH | gust MPH | rain 1hr in | rain 24hr in | rain mn in | humidity % | barometer mb |
| 20260904215503 | 77 | 46 | 0.0 | 2.0 | 0.00 | 0.54 | 0.00 | 68 | 1010.1 |
| 20260904215003 | 77 | 20 | 0.0 | 2.0 | 0.00 | 0.54 | 0.00 | 69 | 1010.1 |
| 20260904214552 | 77 | 0 | 0.0 | 2.0 | 0.00 | 0.55 | 0.00 | 65 | 1011.8 |
| 20260904214503 | 77 | 309 | 1.0 | 2.0 | 0.00 | 0.54 | 0.00 | 67 | 1010.0 |
| 20260904214003 | 78 | 15 | 1.0 | 2.0 | 0.00 | 0.54 | 0.00 | 66 | 1010.1 |
| 20260904213503 | 77 | 66 | 0.0 | 2.0 | 0.00 | 0.54 | 0.00 | 66 | 1010.1 |
| 20260904213055 | 77 | 56 | 0.0 | 2.0 | 0.00 | 0.55 | 0.00 | 64 | 1011.9 |
| 20260904213003 | 77 | 348 | 1.0 | 2.0 | 0.00 | 0.54 | 0.00 | 66 | 1010.3 |
| 20260904212503 | 77 | 335 | 0.0 | 1.0 | 0.00 | 0.54 | 0.00 | 64 | 1010.4 |
| 20260904211601 | 78 | 25 | 0.0 | 3.0 | 0.00 | 0.55 | 0.00 | 63 | 1012.1 |
| 20260904211504 | 78 | 72 | 1.0 | 3.0 | 0.00 | 0.54 | 0.00 | 63 | 1010.3 |
| 20260904211004 | 79 | 8 | 1.0 | 2.0 | 0.00 | 0.54 | 0.00 | 63 | 1010.3 |
| 20260904210503 | 79 | 40 | 1.0 | 3.0 | 0.00 | 0.54 | 0.00 | 64 | 1010.4 |
| 20260904210104 | 79 | 117 | 0.0 | 2.0 | 0.00 | 0.55 | 0.00 | 64 | 1012.1 |
| 20260904210003 | 79 | 1 | 0.0 | 2.0 | 0.00 | 0.55 | 0.00 | 65 | 1010.3 |
| 20260904205503 | 78 | 64 | 0.0 | 2.0 | 0.00 | 0.58 | 0.00 | 70 | 1010.3 |
| 20260904205004 | 78 | 337 | 1.0 | 2.0 | 0.00 | 0.63 | 0.00 | 68 | 1010.4 |
| 20260904204553 | 78 | 0 | 0.0 | 3.0 | 0.00 | 0.72 | 0.00 | 68 | 1012.2 |
| 20260904204503 | 78 | 116 | 0.0 | 2.0 | 0.00 | 0.64 | 0.00 | 68 | 1010.5 |
| 20260904204004 | 78 | 51 | 1.0 | 3.0 | 0.00 | 0.64 | 0.00 | 65 | 1010.5 |
| 20260904203504 | 79 | 334 | 1.0 | 2.0 | 0.00 | 0.64 | 0.00 | 66 | 1010.4 |
| 20260904203056 | 79 | 46 | 1.0 | 3.0 | 0.00 | 0.72 | 0.00 | 64 | 1012.2 |
| 20260904203004 | 79 | 354 | 1.0 | 3.0 | 0.00 | 0.64 | 0.00 | 65 | 1010.5 |
| 20260904202504 | 78 | 356 | 1.0 | 3.0 | 0.00 | 0.64 | 0.00 | 66 | 1010.5 |
| 20260904202003 | 80 | 20 | 1.0 | 3.0 | 0.00 | 0.65 | 0.00 | 65 | 1010.4 |
| 20260904201553 | 80 | 0 | 0.0 | 3.0 | 0.00 | 0.72 | 0.00 | 63 | 1012.3 |
| 20260904201503 | 80 | 61 | 1.0 | 2.0 | 0.00 | 0.72 | 0.00 | 63 | 1010.5 |
| 20260904201003 | 81 | 32 | 1.0 | 3.0 | 0.00 | 0.72 | 0.00 | 63 | 1010.6 |
| 20260904200504 | 80 | 333 | 1.0 | 3.0 | 0.00 | 0.72 | 0.00 | 64 | 1010.6 |
| 20260904200004 | 81 | 337 | 1.0 | 3.0 | 0.00 | 0.72 | 0.00 | 62 | 1010.6 |
| 20260904195503 | 84 | 6 | 2.0 | 6.0 | 0.00 | 0.72 | 0.00 | 57 | 1010.9 |
| 20260904195003 | 84 | 52 | 1.0 | 3.0 | 0.00 | 0.72 | 0.00 | 58 | 1010.9 |
| 20260904194554 | 81 | 340 | 1.0 | 4.0 | 0.00 | 0.72 | 0.00 | 63 | 1012.7 |
| 20260904194504 | 82 | 17 | 1.0 | 3.0 | 0.00 | 0.72 | 0.00 | 63 | 1011.0 |
| 20260904194004 | 81 | 22 | 1.0 | 3.0 | 0.00 | 0.72 | 0.00 | 63 | 1011.0 |
| 20260904193504 | 82 | 321 | 2.0 | 3.0 | 0.00 | 0.72 | 0.00 | 57 | 1011.0 |
| 20260904193054 | 83 | 269 | 1.0 | 3.0 | 0.00 | 0.72 | 0.00 | 53 | 1012.8 |
| 20260904193004 | 84 | 298 | 2.0 | 3.0 | 0.00 | 0.72 | 0.00 | 58 | 1011.1 |
| 20260904192503 | 82 | 308 | 2.0 | 3.0 | 0.00 | 0.72 | 0.00 | 60 | 1011.1 |
| 20260904192004 | 82 | 1 | 1.0 | 3.0 | 0.00 | 0.72 | 0.00 | 59 | 1011.1 |
| 20260904191554 | 81 | 23 | 2.0 | 5.0 | 0.00 | 0.72 | 0.00 | 62 | 1012.9 |
| 20260904191504 | 82 | 337 | 2.0 | 5.0 | 0.00 | 0.72 | 0.00 | 58 | 1011.2 |
| 20260904191004 | 83 | 24 | 2.0 | 3.0 | 0.00 | 0.72 | 0.00 | 56 | 1011.2 |
| 20260904190504 | 84 | 330 | 1.0 | 3.0 | 0.00 | 0.72 | 0.00 | 55 | 1011.2 |
| 20260904190059 | 84 | 89 | 0.0 | 5.0 | 0.00 | 0.72 | 0.00 | 57 | 1013.1 |
| 20260904190003 | 84 | 74 | 1.0 | 3.0 | 0.00 | 0.72 | 0.00 | 57 | 1011.2 |
| 20260904185504 | 82 | 305 | 1.0 | 5.0 | 0.00 | 0.72 | 0.00 | 56 | 1011.2 |
| 20260904185004 | 82 | 13 | 2.0 | 3.0 | 0.00 | 0.72 | 0.00 | 56 | 1011.2 |
| 20260904184556 | 81 | 1 | 1.0 | 4.0 | 0.00 | 0.72 | 0.00 | 57 | 1013.2 |
| 20260904184003 | 82 | 50 | 1.0 | 3.0 | 0.00 | 0.72 | 0.00 | 58 | 1011.3 |
| 20260904183503 | 82 | 24 | 1.0 | 3.0 | 0.00 | 0.72 | 0.00 | 63 | 1011.3 |
| 20260904183109 | 81 | 0 | 1.0 | 4.0 | 0.00 | 0.72 | 0.00 | 58 | 1013.3 |
| 20260904183003 | 81 | 270 | 1.0 | 3.0 | 0.00 | 0.72 | 0.00 | 60 | 1011.5 |
| 20260904182504 | 82 | 65 | 1.0 | 3.0 | 0.00 | 0.72 | 0.00 | 62 | 1011.5 |
| 20260904182004 | 83 | 240 | 2.0 | 3.0 | 0.00 | 0.72 | 0.00 | 56 | 1011.5 |
| 20260904181552 | 82 | 319 | 1.0 | 4.0 | 0.00 | 0.72 | 0.00 | 54 | 1013.4 |
| 20260904181504 | 83 | 329 | 2.0 | 3.0 | 0.00 | 0.72 | 0.00 | 58 | 1011.6 |
| 20260904181004 | 82 | 99 | 1.0 | 3.0 | 0.00 | 0.72 | 0.00 | 60 | 1011.7 |
| 20260904180503 | 80 | 182 | 1.0 | 2.0 | 0.00 | 0.72 | 0.00 | 63 | 1011.8 |
| 20260904180100 | 78 | 223 | 0.0 | 2.0 | 0.00 | 0.72 | 0.00 | 65 | 1013.6 |
| 20260904180004 | 78 | 239 | 0.0 | 2.0 | 0.00 | 0.72 | 0.00 | 68 | 1011.7 |
| 20260904175504 | 77 | 139 | 0.0 | 2.0 | 0.00 | 0.72 | 0.00 | 69 | 1011.8 |
| 20260904175003 | 77 | 233 | 1.0 | 2.0 | 0.00 | 0.72 | 0.00 | 69 | 1011.7 |
| 20260904174553 | 77 | 269 | 0.0 | 3.0 | 0.00 | 0.72 | 0.00 | 68 | 1013.7 |
| 20260904174503 | 77 | 35 | 0.0 | 3.0 | 0.00 | 0.72 | 0.00 | 69 | 1011.8 |
| 20260904173503 | 82 | 271 | 1.0 | 2.0 | 0.00 | 0.72 | 0.00 | 63 | 1012.0 |
| 20260904173102 | 83 | 72 | 1.0 | 3.0 | 0.00 | 0.72 | 0.00 | 61 | 1013.8 |
| 20260904173004 | 84 | 321 | 1.0 | 2.0 | 0.00 | 0.72 | 0.00 | 60 | 1012.0 |
| 20260904172504 | 79 | 244 | 1.0 | 3.0 | 0.00 | 0.72 | 0.00 | 64 | 1012.1 |
| 20260904171611 | 78 | 0 | 0.0 | 3.0 | 0.00 | 0.72 | 0.00 | 70 | 1014.0 |
| 20260904171504 | 78 | 346 | 1.0 | 2.0 | 0.00 | 0.72 | 0.00 | 69 | 1012.2 |
| 20260904171003 | 78 | 323 | 1.0 | 3.0 | 0.00 | 0.72 | 0.00 | 69 | 1012.3 |
| 20260904170503 | 79 | 315 | 1.0 | 3.0 | 0.00 | 0.72 | 0.00 | 68 | 1012.3 |
| 20260904170057 | 80 | 1 | 1.0 | 3.0 | 0.00 | 0.72 | 0.00 | 66 | 1014.1 |
| 20260904170003 | 80 | 75 | 1.0 | 3.0 | 0.00 | 0.72 | 0.00 | 69 | 1012.2 |
| 20260904165504 | 79 | 113 | 1.0 | 3.0 | 0.00 | 0.72 | 0.00 | 72 | 1012.2 |
| 20260904165004 | 80 | 275 | 1.0 | 3.0 | 0.00 | 0.72 | 0.00 | 65 | 1012.1 |
| 20260904164626 | 80 | 0 | 0.0 | 2.0 | 0.00 | 0.73 | 0.00 | 68 | 1014.1 |
| 20260904164504 | 80 | 57 | 1.0 | 2.0 | 0.00 | 0.72 | 0.00 | 69 | 1012.2 |
| 20260904164003 | 76 | 305 | 1.0 | 2.0 | 0.00 | 0.72 | 0.00 | 76 | 1012.3 |
| 20260904163503 | 75 | 12 | 1.0 | 3.0 | 0.00 | 0.72 | 0.00 | 76 | 1012.3 |
| 20260904163100 | 75 | 28 | 0.0 | 3.0 | 0.00 | 0.73 | 0.00 | 75 | 1014.1 |
| 20260904163004 | 76 | 310 | 1.0 | 2.0 | 0.00 | 0.72 | 0.00 | 74 | 1012.2 |
| 20260904162504 | 77 | 345 | 0.0 | 3.0 | 0.00 | 0.72 | 0.00 | 68 | 1012.2 |
| 20260904162004 | 79 | 327 | 1.0 | 2.0 | 0.00 | 0.72 | 0.00 | 67 | 1012.2 |
| 20260904161556 | 81 | 336 | 1.0 | 3.0 | 0.00 | 0.73 | 0.00 | 61 | 1014.0 |
| 20260904161504 | 83 | 293 | 1.0 | 3.0 | 0.00 | 0.72 | 0.00 | 61 | 1012.3 |
| 20260904161003 | 80 | 347 | 1.0 | 3.0 | 0.00 | 0.72 | 0.00 | 69 | 1012.4 |
| 20260904160503 | 77 | 225 | 1.0 | 3.0 | 0.00 | 0.72 | 0.00 | 70 | 1012.3 |
| 20260904160055 | 75 | 105 | 1.0 | 3.0 | 0.00 | 0.73 | 0.00 | 75 | 1014.0 |
| 20260904160004 | 75 | 135 | 2.0 | 3.0 | 0.00 | 0.73 | 0.00 | 75 | 1012.5 |
| 20260904155504 | 76 | 353 | 1.0 | 3.0 | 0.00 | 0.73 | 0.00 | 74 | 1012.4 |
| 20260904155004 | 77 | 166 | 1.0 | 3.0 | 0.00 | 0.73 | 0.00 | 69 | 1012.2 |
| 20260904154600 | 77 | 152 | 1.0 | 4.0 | 0.00 | 0.73 | 0.00 | 69 | 1014.0 |
| 20260904154504 | 77 | 218 | 1.0 | 3.0 | 0.00 | 0.73 | 0.00 | 72 | 1012.3 |
| 20260904154003 | 76 | 245 | 1.0 | 3.0 | 0.00 | 0.73 | 0.00 | 76 | 1012.3 |
| 20260904153503 | 76 | 254 | 1.0 | 2.0 | 0.00 | 0.73 | 0.00 | 78 | 1012.4 |
| 20260904153110 | 75 | 0 | 0.0 | 3.0 | 0.00 | 0.73 | 0.00 | 77 | 1014.1 |
| 20260904153003 | 76 | 30 | 1.0 | 2.0 | 0.00 | 0.73 | 0.00 | 76 | 1012.4 |
| 20260904152503 | 77 | 222 | 1.0 | 3.0 | 0.00 | 0.73 | 0.00 | 76 | 1012.3 |
| 20260904152004 | 76 | 213 | 1.0 | 2.0 | 0.00 | 0.73 | 0.00 | 76 | 1012.2 |
| 20260904151555 | 75 | 0 | 0.0 | 2.0 | 0.00 | 0.73 | 0.00 | 80 | 1014.0 |
| 20260904151504 | 75 | 104 | 1.0 | 2.0 | 0.00 | 0.73 | 0.00 | 83 | 1012.2 |
| 20260904150504 | 74 | 316 | 1.0 | 3.0 | 0.00 | 0.73 | 0.00 | 81 | 1012.1 |
| 20260904150054 | 74 | 157 | 1.0 | 5.0 | 0.00 | 0.73 | 0.00 | 78 | 1013.9 |
| 20260904150004 | 74 | 199 | 2.0 | 5.0 | 0.00 | 0.73 | 0.00 | 80 | 1012.1 |
| 20260904145003 | 74 | 247 | 2.0 | 3.0 | 0.00 | 0.73 | 0.00 | 80 | 1012.2 |
| 20260904144603 | 73 | 0 | 0.0 | 3.0 | 0.00 | 0.73 | 0.00 | 81 | 1013.8 |
| 20260904144004 | 73 | 148 | 1.0 | 2.0 | 0.00 | 0.73 | 0.00 | 83 | 1012.0 |
| 20260904143503 | 73 | 229 | 1.0 | 3.0 | 0.00 | 0.73 | 0.00 | 85 | 1012.1 |
| 20260904143057 | 72 | 178 | 0.0 | 3.0 | 0.00 | 0.73 | 0.00 | 85 | 1013.9 |
| 20260904143003 | 72 | 181 | 1.0 | 2.0 | 0.00 | 0.73 | 0.00 | 85 | 1012.2 |
| 20260904142504 | 72 | 216 | 1.0 | 3.0 | 0.00 | 0.73 | 0.00 | 86 | 1012.4 |
| 20260904142004 | 71 | 96 | 1.0 | 3.0 | 0.00 | 0.73 | 0.00 | 88 | 1012.4 |
| 20260904141555 | 70 | 145 | 1.0 | 5.0 | 0.00 | 0.73 | 0.00 | 88 | 1014.2 |
| 20260904141504 | 71 | 156 | 1.0 | 3.0 | 0.00 | 0.73 | 0.00 | 88 | 1012.3 |
| 20260904141004 | 70 | 238 | 2.0 | 5.0 | 0.00 | 0.73 | 0.00 | 90 | 1012.4 |
| 20260904140504 | 70 | 174 | 1.0 | 3.0 | 0.00 | 0.73 | 0.00 | 92 | 1012.3 |
| 20260904140104 | 69 | 161 | 2.0 | 4.0 | 0.00 | 0.73 | 0.00 | 92 | 1014.1 |
| 20260904140004 | 69 | 180 | 2.0 | 3.0 | 0.00 | 0.73 | 0.00 | 93 | 1012.3 |
| 20260904135504 | 69 | 146 | 0.0 | 2.0 | 0.00 | 0.73 | 0.00 | 94 | 1012.6 |
| 20260904135003 | 69 | 307 | 1.0 | 2.0 | 0.00 | 0.73 | 0.00 | 94 | 1012.5 |
| 20260904134603 | 68 | 0 | 0.0 | 4.0 | 0.00 | 0.73 | 0.00 | 94 | 1014.3 |
| 20260904134503 | 68 | 168 | 1.0 | 2.0 | 0.00 | 0.73 | 0.00 | 94 | 1012.5 |
| 20260904133503 | 68 | 223 | 1.0 | 2.0 | 0.00 | 0.73 | 0.00 | 96 | 1012.4 |
| 20260904133057 | 67 | 0 | 1.0 | 3.0 | 0.00 | 0.73 | 0.00 | 95 | 1014.3 |
| 20260904133003 | 68 | 224 | 2.0 | 3.0 | 0.00 | 0.73 | 0.00 | 96 | 1012.4 |
| 20260904132503 | 68 | 261 | 2.0 | 3.0 | 0.00 | 0.73 | 0.00 | 96 | 1012.5 |
| 20260904132003 | 67 | 205 | 1.0 | 2.0 | 0.00 | 0.73 | 0.00 | 96 | 1012.4 |
| 20260904131604 | 67 | 169 | 1.0 | 4.0 | 0.00 | 0.73 | 0.00 | 95 | 1014.2 |
| 20260904131503 | 67 | 5 | 1.0 | 3.0 | 0.00 | 0.73 | 0.00 | 96 | 1012.4 |
| 20260904131004 | 67 | 159 | 1.0 | 3.0 | 0.00 | 0.73 | 0.00 | 96 | 1012.7 |
| 20260904130053 | 66 | 206 | 0.0 | 3.0 | 0.00 | 0.73 | 0.00 | 96 | 1014.3 |
| 20260904130003 | 67 | 90 | 1.0 | 2.0 | 0.00 | 0.73 | 0.00 | 96 | 1012.6 |
| 20260904125503 | 66 | 100 | 1.0 | 3.0 | 0.00 | 0.73 | 0.00 | 96 | 1012.6 |
| 20260904125003 | 66 | 193 | 1.0 | 3.0 | 0.00 | 0.73 | 0.00 | 96 | 1012.5 |
| 20260904124600 | 66 | 117 | 0.0 | 4.0 | 0.00 | 0.73 | 0.00 | 96 | 1014.3 |
| 20260904124503 | 66 | 102 | 0.0 | 2.0 | 0.00 | 0.73 | 0.00 | 96 | 1012.5 |
| 20260904124004 | 66 | 250 | 2.0 | 3.0 | 0.00 | 0.73 | 0.00 | 96 | 1012.5 |
| 20260904123503 | 66 | 232 | 1.0 | 3.0 | 0.00 | 0.73 | 0.00 | 96 | 1012.4 |
| 20260904123056 | 65 | 178 | 0.0 | 3.0 | 0.00 | 0.73 | 0.00 | 96 | 1014.0 |
| 20260904123004 | 66 | 187 | 1.0 | 2.0 | 0.00 | 0.73 | 0.00 | 96 | 1012.2 |
| 20260904122504 | 66 | 150 | 1.0 | 3.0 | 0.00 | 0.73 | 0.00 | 96 | 1012.3 |
| 20260904121552 | 65 | 0 | 0.0 | 2.0 | 0.00 | 0.73 | 0.00 | 96 | 1014.0 |
| 20260904121504 | 66 | 169 | 0.0 | 2.0 | 0.00 | 0.73 | 0.00 | 96 | 1012.3 |
| 20260904121003 | 65 | 157 | 1.0 | 2.0 | 0.00 | 0.73 | 0.00 | 96 | 1012.3 |
| 20260904120503 | 65 | 166 | 1.0 | 2.0 | 0.00 | 0.73 | 0.00 | 96 | 1012.3 |
| 20260904120100 | 65 | 0 | 0.0 | 2.0 | 0.00 | 0.73 | 0.00 | 96 | 1014.0 |
| 20260904120003 | 65 | 70 | 0.0 | 2.0 | 0.00 | 0.73 | 0.00 | 96 | 1012.2 |
| 20260904115506 | 65 | 187 | 1.0 | 2.0 | 0.00 | 0.73 | 0.00 | 96 | 1012.2 |
| 20260904115003 | 65 | 172 | 1.0 | 2.0 | 0.00 | 0.73 | 0.00 | 96 | 1012.4 |
| 20260904114553 | 64 | 190 | 1.0 | 2.0 | 0.00 | 0.73 | 0.00 | 96 | 1014.0 |
| 20260904114503 | 64 | 178 | 1.0 | 2.0 | 0.00 | 0.73 | 0.00 | 96 | 1012.3 |
| 20260904114004 | 64 | 140 | 1.0 | 1.0 | 0.00 | 0.73 | 0.00 | 96 | 1012.4 |
| 20260904113504 | 64 | 83 | 1.0 | 2.0 | 0.00 | 0.73 | 0.00 | 96 | 1012.5 |
| 20260904113055 | 64 | 0 | 0.0 | 1.0 | 0.00 | 0.73 | 0.00 | 96 | 1014.1 |
| 20260904113004 | 64 | 94 | 0.0 | 1.0 | 0.00 | 0.73 | 0.00 | 96 | 1012.3 |
| 20260904112003 | 64 | 120 | 0.0 | 1.0 | 0.00 | 0.73 | 0.00 | 96 | 1012.3 |
| 20260904111601 | 64 | 161 | 0.0 | 2.0 | 0.00 | 0.73 | 0.00 | 95 | 1014.0 |
| 20260904111503 | 64 | 182 | 1.0 | 2.0 | 0.00 | 0.73 | 0.00 | 96 | 1012.3 |
| 20260904111003 | 64 | 170 | 0.0 | 1.0 | 0.00 | 0.73 | 0.00 | 96 | 1012.2 |
| 20260904110503 | 64 | 84 | 0.0 | 1.0 | 0.00 | 0.73 | 0.00 | 96 | 1012.2 |
| 20260904110003 | 64 | 184 | 0.0 | 1.0 | 0.00 | 0.73 | 0.00 | 96 | 1012.1 |
| 20260904105503 | 64 | 229 | 0.0 | 1.0 | 0.00 | 0.73 | 0.00 | 96 | 1012.2 |
| 20260904104558 | 64 | 197 | 0.0 | 1.0 | 0.00 | 0.73 | 0.00 | 95 | 1013.7 |
| 20260904104503 | 64 | 203 | 0.0 | 1.0 | 0.00 | 0.73 | 0.00 | 96 | 1011.9 |
| 20260904104003 | 64 | 96 | 0.0 | 1.0 | 0.00 | 0.73 | 0.00 | 96 | 1012.0 |
| 20260904103503 | 64 | 163 | 1.0 | 1.0 | 0.00 | 0.73 | 0.00 | 96 | 1012.0 |
| 20260904103057 | 64 | 250 | 0.0 | 1.0 | 0.00 | 0.73 | 0.00 | 95 | 1013.8 |
| 20260904103003 | 64 | 184 | 0.0 | 1.0 | 0.00 | 0.73 | 0.00 | 96 | 1012.0 |
| 20260904102003 | 65 | 115 | 0.0 | 1.0 | 0.00 | 0.73 | 0.00 | 96 | 1011.6 |
| 20260904101559 | 64 | 0 | 0.0 | 2.0 | 0.00 | 0.73 | 0.00 | 95 | 1013.4 |
| 20260904101503 | 65 | 75 | 0.0 | 1.0 | 0.00 | 0.73 | 0.00 | 96 | 1011.5 |
| 20260904100504 | 65 | 179 | 1.0 | 2.0 | 0.00 | 0.73 | 0.00 | 96 | 1011.6 |
| 20260904100108 | 65 | 0 | 0.0 | 1.0 | 0.00 | 0.73 | 0.00 | 95 | 1013.5 |
| 20260904100004 | 65 | 95 | 0.0 | 1.0 | 0.00 | 0.73 | 0.00 | 96 | 1011.6 |
| 20260904094605 | 65 | 145 | 0.0 | 1.0 | 0.00 | 0.73 | 0.00 | 95 | 1013.4 |
| 20260904094503 | 65 | 93 | 0.0 | 1.0 | 0.00 | 0.73 | 0.00 | 96 | 1011.5 |
| 20260904094003 | 65 | 99 | 0.0 | 1.0 | 0.00 | 0.73 | 0.00 | 96 | 1011.5 |
| 20260904093051 | 65 | 0 | 0.0 | 2.0 | 0.00 | 0.73 | 0.00 | 95 | 1013.4 |
| 20260904093004 | 65 | 103 | 0.0 | 2.0 | 0.00 | 0.73 | 0.00 | 96 | 1011.5 |
| 20260904092504 | 65 | 113 | 0.0 | 1.0 | 0.00 | 0.73 | 0.00 | 96 | 1011.4 |
| 20260904091606 | 65 | 178 | 0.0 | 2.0 | 0.00 | 0.73 | 0.00 | 95 | 1013.3 |
| 20260904091503 | 66 | 176 | 1.0 | 1.0 | 0.00 | 0.73 | 0.00 | 96 | 1011.4 |
| 20260904091003 | 66 | 151 | 0.0 | 1.0 | 0.00 | 0.73 | 0.00 | 96 | 1011.3 |
| 20260904090503 | 66 | 177 | 1.0 | 2.0 | 0.00 | 0.73 | 0.00 | 96 | 1011.3 |
| 20260904090059 | 65 | 0 | 0.0 | 1.0 | 0.00 | 0.73 | 0.00 | 95 | 1013.1 |
| 20260904090003 | 66 | 75 | 1.0 | 1.0 | 0.00 | 0.73 | 0.00 | 96 | 1011.1 |
| 20260904085004 | 66 | 164 | 0.0 | 1.0 | 0.00 | 0.73 | 0.00 | 96 | 1011.1 |
| 20260904084553 | 66 | 0 | 0.0 | 2.0 | 0.00 | 0.73 | 0.00 | 95 | 1013.0 |
| 20260904084504 | 66 | 105 | 0.0 | 2.0 | 0.00 | 0.73 | 0.00 | 96 | 1011.1 |
| 20260904084004 | 66 | 178 | 1.0 | 2.0 | 0.00 | 0.73 | 0.00 | 96 | 1011.1 |
| 20260904083503 | 66 | 176 | 1.0 | 2.0 | 0.00 | 0.73 | 0.00 | 96 | 1011.1 |
| 20260904083059 | 66 | 178 | 0.0 | 2.0 | 0.00 | 0.73 | 0.00 | 95 | 1012.9 |
| 20260904083003 | 66 | 156 | 0.0 | 1.0 | 0.00 | 0.73 | 0.00 | 96 | 1011.0 |
| 20260904082503 | 66 | 177 | 1.0 | 2.0 | 0.00 | 0.73 | 0.00 | 96 | 1010.9 |
| 20260904082004 | 66 | 90 | 0.0 | 1.0 | 0.00 | 0.73 | 0.00 | 96 | 1010.8 |
| 20260904081552 | 66 | 0 | 0.0 | 2.0 | 0.00 | 0.73 | 0.00 | 95 | 1012.5 |
| 20260904081504 | 66 | 68 | 0.0 | 2.0 | 0.00 | 0.73 | 0.00 | 96 | 1010.7 |
| 20260904081004 | 66 | 92 | 0.0 | 2.0 | 0.00 | 0.73 | 0.00 | 96 | 1010.7 |
| 20260904080504 | 66 | 106 | 1.0 | 2.0 | 0.00 | 0.73 | 0.00 | 96 | 1010.7 |
| 20260904080057 | 66 | 178 | 0.0 | 1.0 | 0.00 | 0.73 | 0.00 | 95 | 1012.4 |
| 20260904080003 | 66 | 180 | 1.0 | 1.0 | 0.00 | 0.73 | 0.00 | 96 | 1010.8 |
| 20260904075503 | 66 | 177 | 0.0 | 1.0 | 0.00 | 0.73 | 0.00 | 96 | 1010.7 |
| 20260904074553 | 66 | 193 | 0.0 | 2.0 | 0.00 | 0.73 | 0.00 | 95 | 1012.4 |
| 20260904074504 | 66 | 182 | 0.0 | 1.0 | 0.00 | 0.73 | 0.00 | 96 | 1010.7 |
| 20260904074004 | 66 | 126 | 1.0 | 2.0 | 0.00 | 0.73 | 0.00 | 96 | 1010.7 |
| 20260904073503 | 66 | 187 | 1.0 | 2.0 | 0.00 | 0.73 | 0.00 | 96 | 1010.7 |
| 20260904073232 | 66 | 145 | 0.0 | 2.0 | 0.00 | 0.73 | 0.00 | 95 | 1012.4 |
| 20260904073003 | 66 | 173 | 1.0 | 1.0 | 0.00 | 0.73 | 0.00 | 95 | 1010.7 |
| 20260904072004 | 67 | 194 | 0.0 | 1.0 | 0.00 | 0.73 | 0.00 | 96 | 1010.6 |
| 20260904071602 | 67 | 0 | 0.0 | 3.0 | 0.00 | 0.73 | 0.00 | 95 | 1012.2 |
| 20260904070503 | 68 | 155 | 0.0 | 1.0 | 0.00 | 0.73 | 0.00 | 96 | 1010.5 |
| 20260904070108 | 67 | 178 | 0.0 | 1.0 | 0.00 | 0.73 | 0.00 | 95 | 1012.3 |
| 20260904070003 | 68 | 104 | 0.0 | 1.0 | 0.00 | 0.73 | 0.00 | 96 | 1010.5 |
| 20260904065503 | 68 | 96 | 0.0 | 1.0 | 0.00 | 0.73 | 0.00 | 96 | 1010.5 |
| 20260904064608 | 68 | 0 | 0.0 | 1.0 | 0.00 | 0.73 | 0.00 | 95 | 1012.1 |
| 20260904064503 | 68 | 86 | 0.0 | 1.0 | 0.00 | 0.73 | 0.00 | 96 | 1010.4 |
| 20260904064004 | 69 | 120 | 0.0 | 1.0 | 0.00 | 0.73 | 0.00 | 96 | 1010.4 |
| 20260904063504 | 69 | 79 | 1.0 | 1.0 | 0.00 | 0.73 | 0.00 | 96 | 1010.5 |
| 20260904063108 | 68 | 0 | 0.0 | 1.0 | 0.00 | 0.73 | 0.00 | 95 | 1012.4 |
| 20260904063004 | 69 | 134 | 0.0 | 1.0 | 0.00 | 0.73 | 0.00 | 96 | 1010.6 |
| 20260904062504 | 69 | 93 | 0.0 | 1.0 | 0.00 | 0.73 | 0.00 | 96 | 1010.6 |
| 20260904062003 | 69 | 66 | 0.0 | 1.0 | 0.00 | 0.73 | 0.00 | 96 | 1010.6 |
| 20260904061600 | 69 | 0 | 0.0 | 1.0 | 0.00 | 0.73 | 0.00 | 95 | 1012.4 |
| 20260904061503 | 69 | 71 | 0.0 | 1.0 | 0.00 | 0.73 | 0.00 | 96 | 1010.5 |
| 20260904061004 | 69 | 64 | 0.0 | 1.0 | 0.00 | 0.73 | 0.00 | 96 | 1010.5 |
| 20260904060107 | 69 | 178 | 0.0 | 1.0 | 0.00 | 0.73 | 0.00 | 95 | 1012.5 |
| 20260904060004 | 69 | 192 | 0.0 | 1.0 | 0.00 | 0.73 | 0.00 | 96 | 1010.8 |
| 20260904055504 | 69 | 132 | 0.0 | 1.0 | 0.00 | 0.73 | 0.00 | 96 | 1010.7 |
| 20260904055003 | 69 | 145 | 0.0 | 1.0 | 0.00 | 0.73 | 0.00 | 96 | 1010.6 |
| 20260904054616 | 69 | 0 | 0.0 | 1.0 | 0.00 | 0.73 | 0.00 | 95 | 1012.5 |
| 20260904054503 | 69 | 63 | 0.0 | 0.0 | 0.00 | 0.73 | 0.00 | 96 | 1010.8 |
| 20260904054003 | 69 | 144 | 0.0 | 1.0 | 0.00 | 0.73 | 0.00 | 96 | 1010.8 |
| 20260904053503 | 69 | 119 | 0.0 | 1.0 | 0.00 | 0.73 | 0.00 | 96 | 1010.8 |
| 20260904053055 | 69 | 0 | 0.0 | 2.0 | 0.00 | 0.73 | 0.00 | 95 | 1012.7 |
| 20260904053004 | 69 | 211 | 0.0 | 1.0 | 0.00 | 0.73 | 0.00 | 96 | 1010.9 |
| 20260904052504 | 69 | 181 | 1.0 | 2.0 | 0.00 | 0.73 | 0.00 | 96 | 1010.8 |
| 20260904052004 | 69 | 127 | 0.0 | 1.0 | 0.00 | 0.73 | 0.00 | 96 | 1010.8 |
| 20260904051553 | 69 | 0 | 0.0 | 2.0 | 0.00 | 0.73 | 0.00 | 95 | 1012.8 |
| 20260904051504 | 69 | 139 | 0.0 | 1.0 | 0.00 | 0.73 | 0.00 | 96 | 1010.9 |
| 20260904051003 | 70 | 83 | 0.0 | 2.0 | 0.00 | 0.73 | 0.00 | 96 | 1010.8 |
| 20260904050055 | 69 | 0 | 0.0 | 1.0 | 0.00 | 0.73 | 0.00 | 95 | 1012.9 |
| 20260904050004 | 70 | 132 | 0.0 | 1.0 | 0.00 | 0.73 | 0.00 | 96 | 1011.0 |
| 20260904045504 | 70 | 75 | 0.0 | 1.0 | 0.00 | 0.73 | 0.00 | 96 | 1011.1 |
| 20260904045004 | 70 | 242 | 0.0 | 1.0 | 0.00 | 0.73 | 0.00 | 96 | 1011.1 |
| 20260904044553 | 69 | 0 | 0.0 | 2.0 | 0.00 | 0.73 | 0.00 | 95 | 1012.9 |
| 20260904044503 | 70 | 116 | 0.0 | 1.0 | 0.00 | 0.73 | 0.00 | 96 | 1011.0 |
| 20260904043504 | 70 | 210 | 1.0 | 2.0 | 0.01 | 0.73 | 0.00 | 96 | 1010.9 |
| 20260904043054 | 70 | 250 | 0.0 | 2.0 | 0.01 | 0.73 | 0.00 | 95 | 1012.9 |
| 20260904043004 | 70 | 186 | 1.0 | 2.0 | 0.01 | 0.73 | 0.00 | 96 | 1011.0 |
| 20260904042504 | 70 | 245 | 1.0 | 2.0 | 0.01 | 0.73 | 0.00 | 96 | 1011.1 |
| 20260904042004 | 70 | 205 | 1.0 | 2.0 | 0.01 | 0.73 | 0.00 | 96 | 1011.0 |
| 20260904041604 | 70 | 223 | 0.0 | 2.0 | 0.01 | 0.73 | 0.00 | 95 | 1012.7 |
| 20260904041503 | 70 | 222 | 1.0 | 2.0 | 0.01 | 0.73 | 0.00 | 96 | 1010.9 |
| 20260904041004 | 70 | 274 | 1.0 | 2.0 | 0.01 | 0.73 | 0.00 | 96 | 1010.8 |
| 20260904040503 | 70 | 173 | 1.0 | 2.0 | 0.01 | 0.73 | 0.00 | 96 | 1010.8 |
| 20260904040055 | 69 | 0 | 1.0 | 3.0 | 0.01 | 0.73 | 0.00 | 95 | 1012.7 |
| 20260904040003 | 70 | 208 | 1.0 | 3.0 | 0.01 | 0.73 | 0.00 | 96 | 1010.8 |
| 20260904035504 | 70 | 178 | 1.0 | 3.0 | 0.01 | 0.73 | 0.73 | 96 | 1010.7 |
| 20260904035004 | 70 | 200 | 1.0 | 2.0 | 0.01 | 0.73 | 0.73 | 96 | 1010.9 |
| 20260904034553 | 69 | 213 | 1.0 | 2.0 | 0.01 | 0.73 | 0.73 | 95 | 1012.7 |
| 20260904034504 | 70 | 199 | 1.0 | 2.0 | 0.01 | 0.73 | 0.73 | 96 | 1010.9 |
| 20260904034004 | 70 | 203 | 1.0 | 2.0 | 0.00 | 0.72 | 0.72 | 96 | 1010.8 |
| 20260904033059 | 69 | 0 | 0.0 | 2.0 | 0.00 | 0.72 | 0.72 | 95 | 1012.5 |
| 20260904033003 | 70 | 201 | 1.0 | 2.0 | 0.00 | 0.72 | 0.72 | 96 | 1010.7 |
| 20260904032503 | 70 | 240 | 1.0 | 2.0 | 0.00 | 0.72 | 0.72 | 96 | 1010.6 |
| 20260904032004 | 70 | 235 | 1.0 | 2.0 | 0.00 | 0.72 | 0.72 | 96 | 1010.6 |
| 20260904031600 | 69 | 0 | 0.0 | 2.0 | 0.00 | 0.72 | 0.72 | 95 | 1012.2 |
| 20260904031003 | 70 | 180 | 1.0 | 2.0 | 0.00 | 0.72 | 0.72 | 95 | 1010.4 |
| 20260904030103 | 69 | 234 | 0.0 | 2.0 | 0.00 | 0.72 | 0.72 | 95 | 1012.2 |
| 20260904030003 | 70 | 275 | 0.0 | 1.0 | 0.00 | 0.72 | 0.72 | 95 | 1010.5 |
| 20260904025503 | 70 | 156 | 0.0 | 2.0 | 0.00 | 0.74 | 0.72 | 95 | 1010.4 |
| 20260904025004 | 70 | 163 | 0.0 | 1.0 | 0.00 | 0.79 | 0.72 | 95 | 1010.5 |
| 20260904024559 | 69 | 0 | 0.0 | 1.0 | 0.00 | 0.84 | 0.72 | 95 | 1012.3 |
| 20260904024504 | 70 | 144 | 1.0 | 1.0 | 0.00 | 0.82 | 0.72 | 95 | 1010.6 |
| 20260904023504 | 70 | 80 | 0.0 | 1.0 | 0.00 | 0.82 | 0.72 | 95 | 1010.5 |
| 20260904023104 | 70 | 63 | 0.0 | 2.0 | 0.00 | 0.84 | 0.72 | 95 | 1012.3 |
| 20260904023004 | 70 | 51 | 0.0 | 1.0 | 0.00 | 0.82 | 0.72 | 95 | 1010.5 |
| 20260904022503 | 70 | 180 | 1.0 | 2.0 | 0.06 | 0.83 | 0.72 | 95 | 1010.7 |
| 20260904022003 | 70 | 164 | 0.0 | 1.0 | 0.17 | 0.83 | 0.72 | 95 | 1010.8 |
| 20260904021555 | 70 | 0 | 0.0 | 2.0 | 0.25 | 0.84 | 0.72 | 95 | 1012.7 |
| 20260904021503 | 70 | 353 | 0.0 | 1.0 | 0.30 | 0.83 | 0.72 | 95 | 1010.8 |
| 20260904021003 | 70 | 73 | 0.0 | 2.0 | 0.36 | 0.83 | 0.72 | 95 | 1010.8 |
| 20260904020504 | 70 | 242 | 1.0 | 2.0 | 0.38 | 0.83 | 0.72 | 95 | 1011.0 |
| 20260904020105 | 70 | 340 | 1.0 | 2.0 | 0.43 | 0.84 | 0.72 | 95 | 1012.5 |
| 20260904020004 | 70 | 334 | 1.0 | 2.0 | 0.48 | 0.84 | 0.72 | 95 | 1010.7 |
| 20260904015504 | 70 | 152 | 1.0 | 2.0 | 0.51 | 0.84 | 0.72 | 95 | 1010.4 |
| 20260904014619 | 70 | 108 | 0.0 | 4.0 | 0.52 | 0.87 | 0.72 | 94 | 1012.5 |
| 20260904014503 | 70 | 141 | 0.0 | 2.0 | 0.53 | 0.85 | 0.72 | 95 | 1010.7 |
| 20260904014004 | 70 | 287 | 1.0 | 3.0 | 0.53 | 0.86 | 0.72 | 95 | 1010.7 |
| 20260904013117 | 70 | 190 | 0.0 | 3.0 | 0.52 | 0.87 | 0.72 | 94 | 1012.4 |
| 20260904013004 | 71 | 175 | 0.0 | 2.0 | 0.53 | 0.86 | 0.72 | 94 | 1010.5 |
| 20260904012504 | 71 | 45 | 1.0 | 3.0 | 0.47 | 0.80 | 0.66 | 94 | 1010.6 |
| 20260904012004 | 72 | 33 | 2.0 | 3.0 | 0.36 | 0.69 | 0.55 | 95 | 1010.7 |
| 20260904011602 | 72 | 1 | 1.0 | 3.0 | 0.26 | 0.60 | 0.45 | 94 | 1012.6 |
| 20260904011503 | 73 | 17 | 1.0 | 3.0 | 0.23 | 0.56 | 0.42 | 95 | 1010.7 |
| 20260904011003 | 73 | 19 | 1.0 | 2.0 | 0.17 | 0.51 | 0.36 | 95 | 1010.6 |
| 20260904010114 | 73 | 39 | 0.0 | 2.0 | 0.08 | 0.42 | 0.27 | 95 | 1012.2 |
| 20260904010004 | 73 | 8 | 1.0 | 2.0 | 0.05 | 0.39 | 0.24 | 95 | 1010.3 |
| 20260904005504 | 73 | 31 | 1.0 | 2.0 | 0.02 | 0.37 | 0.21 | 95 | 1010.3 |
| 20260904005003 | 73 | 314 | 0.0 | 2.0 | 0.00 | 0.36 | 0.19 | 95 | 1010.0 |
| 20260904004554 | 72 | 0 | 0.0 | 1.0 | 0.00 | 0.56 | 0.19 | 94 | 1011.8 |
| 20260904004503 | 73 | 51 | 0.0 | 1.0 | 0.00 | 0.36 | 0.19 | 95 | 1010.0 |
| 20260904004004 | 73 | 83 | 0.0 | 1.0 | 0.00 | 0.37 | 0.19 | 94 | 1010.0 |
| 20260904003103 | 72 | 347 | 0.0 | 2.0 | 0.00 | 0.56 | 0.19 | 94 | 1012.0 |
| 20260904003004 | 73 | 332 | 1.0 | 2.0 | 0.00 | 0.38 | 0.19 | 95 | 1010.0 |
| 20260904002504 | 73 | 176 | 1.0 | 2.0 | 0.00 | 0.39 | 0.19 | 94 | 1009.7 |
| 20260904002003 | 73 | 121 | 0.0 | 1.0 | 0.00 | 0.40 | 0.19 | 94 | 1010.0 |
| 20260904001558 | 73 | 0 | 0.0 | 2.0 | 0.00 | 0.56 | 0.19 | 94 | 1012.0 |
| 20260904001003 | 73 | 196 | 1.0 | 2.0 | 0.00 | 0.44 | 0.19 | 94 | 1010.2 |
| 20260904000503 | 73 | 331 | 0.0 | 0.0 | 0.00 | 0.47 | 0.19 | 94 | 1010.1 |
| 20260904000100 | 73 | 0 | 0.0 | 1.0 | 0.00 | 0.56 | 0.19 | 94 | 1012.0 |
| 20260904000003 | 73 | 125 | 0.0 | 1.0 | 0.00 | 0.57 | 0.19 | 94 | 1010.2 |
| 20260903235503 | 73 | 6 | 0.0 | 1.0 | 0.00 | 0.85 | 0.19 | 94 | 1010.1 |
| 20260903235004 | 73 | 66 | 1.0 | 2.0 | 0.00 | 1.03 | 0.19 | 94 | 1010.0 |
| 20260903234552 | 73 | 157 | 1.0 | 2.0 | 0.00 | 2.14 | 0.19 | 94 | 1011.9 |
| 20260903234504 | 74 | 173 | 1.0 | 2.0 | 0.00 | 1.32 | 0.19 | 94 | 1010.0 |
| 20260903234004 | 74 | 162 | 0.0 | 1.0 | 0.00 | 1.62 | 0.19 | 94 | 1010.1 |
| 20260903233059 | 73 | 0 | 0.0 | 2.0 | 0.00 | 2.14 | 0.19 | 93 | 1012.0 |
| 20260903233004 | 74 | 32 | 1.0 | 2.0 | 0.00 | 1.72 | 0.19 | 94 | 1010.1 |
| 20260903232504 | 74 | 160 | 0.0 | 1.0 | 0.00 | 1.72 | 0.19 | 94 | 1010.1 |
| 20260903231613 | 73 | 46 | 0.0 | 2.0 | 0.00 | 2.14 | 0.19 | 93 | 1012.1 |
| 20260903231003 | 74 | 177 | 1.0 | 2.0 | 0.00 | 1.74 | 0.19 | 93 | 1010.1 |
| 20260903230003 | 74 | 167 | 1.0 | 2.0 | 0.00 | 2.14 | 0.19 | 93 | 1010.0 |
| 20260903225503 | 74 | 202 | 0.0 | 1.0 | 0.00 | 2.14 | 0.19 | 94 | 1010.0 |
| 20260903225003 | 74 | 100 | 0.0 | 1.0 | 0.00 | 2.14 | 0.19 | 94 | 1010.0 |
| 20260903224602 | 74 | 0 | 0.0 | 2.0 | 0.00 | 2.14 | 0.19 | 93 | 1011.8 |
| 20260903224004 | 75 | 189 | 1.0 | 2.0 | 0.00 | 2.14 | 0.19 | 93 | 1010.0 |
| 20260903223504 | 75 | 139 | 0.0 | 1.0 | 0.00 | 2.14 | 0.19 | 93 | 1009.7 |
| 20260903223108 | 74 | 0 | 0.0 | 2.0 | 0.00 | 2.14 | 0.19 | 93 | 1011.6 |
| 20260903222504 | 75 | 111 | 0.0 | 1.0 | 0.00 | 2.14 | 0.19 | 94 | 1009.7 |
| 20260903222004 | 75 | 249 | 0.0 | 1.0 | 0.00 | 2.14 | 0.19 | 93 | 1010.0 |
| 20260903221554 | 74 | 0 | 0.0 | 1.0 | 0.00 | 2.14 | 0.19 | 93 | 1011.7 |
| 20260903221504 | 75 | 132 | 0.0 | 1.0 | 0.00 | 2.14 | 0.19 | 94 | 1009.7 |
| 20260903220503 | 75 | 119 | 0.0 | 1.0 | 0.00 | 2.14 | 0.19 | 94 | 1009.6 |
| 20260903220056 | 74 | 0 | 0.0 | 2.0 | 0.00 | 2.14 | 0.19 | 93 | 1011.5 |
| 20260903220003 | 75 | 164 | 0.0 | 1.0 | 0.01 | 2.14 | 0.19 | 94 | 1009.5 |